Regional Weather Roundup
Issued by NWS Charleston, SC

Current Version | Previous Version | Graphics & Text | Print | Product List | Glossary On
Versions: 1 2 3 4 5 6 7 8 9 10 11 12 13 14 15 16 17 18 19 20 21 22 23 24 25 26 27 28 29 30 31 32 33 34 35 36 37 38 39 40 41 42 43 44 45 46 47 48 49 50
000
ASUS42 KCHS 262327
RWRCHS

REGIONAL WEATHER ROUNDUP
NATIONAL WEATHER SERVICE CHARLESTON SC
700 PM EDT TUE MAY 26 2015

NOTE: "FAIR" INDICATES FEW OR NO CLOUDS BELOW 12,000 FEET WITH NO
SIGNIFICANT WEATHER AND/OR OBSTRUCTIONS TO VISIBILITY.

NOT ALL STATIONS ARE QUALITY CONTROLLED BY THE NATIONAL
WEATHER SERVICE. USE DATA WITH CAUTION...ESPECIALLY
DEWPOINT OBSERVATIONS.

SCZ027-030-031-034>040-042>050-270000-
...SOUTHEAST SOUTH CAROLINA...

CITY           SKY/WX    TMP DP  RH WIND       PRES   REMARKS
N CHARLESTON   PTSUNNY   81  70  69 S13       30.22R
WATERFRONT PAR   N/A     79  73  82 S7        30.18S
MOUNT PLEASANT FAIR      79  73  83 SE7       30.23R
JOHNS ISLAND   PTCLDY    81  73  78 S8        30.23R
PINOPOLIS        N/A     88  68  51 S6        30.11F HX  91
MONCKS CORNER  FAIR      82  68  61 S8        30.21R
SUMMERVILLE    FAIR      82  70  65 S5        30.22R
BEAUFORT MCAS  PTSUNNY   82  70  66 S8        30.21R
BEAUFORT ARPT  FAIR      81  72  74 SE6       30.21R
HILTON HEAD IS MOSUNNY   79  72  78 SE6       30.22
WALTERBORO     PTCLDY    79  68  69 SE10      30.21S
ALLENDALE      FAIR      84  68  58 SE9       30.18S

...SOUTHERN MIDLANDS AND PEE DEE...

CITY           SKY/WX    TMP DP  RH WIND       PRES   REMARKS
GEORGETOWN     NOT AVBL
KINGSTREE      NOT AVBL
ORANGEBURG     MOSUNNY   84  66  54 S13G18    30.18R
BARNWELL       FAIR      84  70  61 SE7       30.19R
AIKEN          MOCLDY    72  66  83 E7        30.23R
MANNING        FAIR      81  28  15 S6        30.19S
COLUMBIA       CLOUDY    77  66  68 NW8       30.18R
SUMTER         MOSUNNY   85  66  53 S8        30.17R
FLORENCE       MOSUNNY   85  70  60 SE15      30.19R
MYRTLE BEACH   PTSUNNY   81  68  65 S14G21    30.23F
N MYRTLE BEACH CLOUDY    77  70  79 S14       30.23R

$$

GAZ063-065-086>088-099>101-113>116-118-119-134>141-150-270000-
...SOUTHEAST GEORGIA...

CITY           SKY/WX    TMP DP  RH WIND       PRES   REMARKS
SAVANNAH ARPT  CLOUDY    82  68  62 S15       30.20R
HUNTER AAF     MOSUNNY   81  71  71 SE10      30.18R
FORT STEWART   MOSUNNY   82  70  66 SE10      30.17R
STATESBORO     PTSUNNY   82  72  72 SE7       30.18R
SYLVANIA       MOCLDY    84  70  62 S6        30.20R
CLAXTON        FAIR      81  72  74 SE5       30.18R

...CSRA...CENTRAL AND FAR SOUTHEAST GEORGIA...

CITY           SKY/WX    TMP DP  RH WIND       PRES   REMARKS
THOMSON        CLOUDY    82  68  62 W21G32    30.25R
AUGUSTA-BUSH   LGT RAIN  78  74  87 SW5       30.15R
AUGUSTA-DANIEL TSTM      76  69  79 NE7       30.17S
SWAINSBORO     MOCLDY    88  70  55 S7        30.18R HX  92
VIDALIA        CLOUDY    84  68  58 SE5       30.17R
EASTMAN        TSTM      71  71 100 N7        30.23R
HAZLEHURST     CLOUDY    82  71  69 CALM      30.16R
ALMA           CLOUDY    80  70  71 E7        30.14S THUNDER
WAYCROSS       PTSUNNY   84  72  67 S10       30.17R THUNDER
JESUP          FAIR      82  72  69 SE5       30.18S
BAXLEY         FAIR      77  73  88 E3        30.15F
BRUNSWICK      SUNNY     81  68  65 SE10      30.20S
SAINT SIMONS   NOT AVBL

$$

SCZ027-028-034-036>038-045-046-048>050-GAZ119-141-270000-
...LAKE AND SUPPLEMENTAL COASTAL OBSERVATIONS...

STATION/POSITION TIME  TEMP    WIND        PRES    WAVE   SWELL
                       AIR SEA DIR/SP/G            HT/PER HT/PER/DIR
                 (UTC) (F)     (DEG/KT/KT) (MB)    (FT/S) (FT/S/D)
UPR LAKE MARION  NOT AVBL
WINYAH BAY       2245   76     150/ 12     1022.0S
LAKE MURRAY      2200   83     270/  4/  4 1020.7S
ACE BASIN NERRS  NOT AVBL
FORT PULASKI     2300   80 79  140/  5/  8 1023.6R
SAPELO ISLAND    2300   83     140/  9     1022.0S

$$

ANZ835-935-AMZ111-154-330-350-352-354-370-450-454-472-270000-
...C-MAN AND BUOY OBSERVATIONS...

STATION/POSITION TIME  TEMP    WIND        PRES    WAVE   SWELL
                       AIR SEA DIR/SP/G            HT/PER HT/PER/DIR
                 (UTC) (F)     (DEG/KT/KT) (MB)    (FT/S) (FT/S/D)
BUOY 41004       2250   78 76  160/ 12/ 14 1022.8F   4/ 6   2/ 6
BUOY 41008       2250   78 79  110/  8/ 10 1022.8R   2/ 7   2/100/ 7
FOLLY BEACH CMAN 2300   79     150/  6/  7 1023.7R
CAPERS NEARSHORE 2208   77     140/ 12/ 14 1023.3F
FRIPP NEARSHORE  2200   79     190/  6/  8 1022.5


STATION/POSITION TIME  TEMP    WIND        PRES    WAVE   SWELL
                       AIR SEA DIR/SP/G            HT/PER HT/PER/DIR
                 (UTC) (F)     (DEG/KT/KT) (MB)    (FT/S) (FT/S/D)
5E ST. MARYS GA  2221      80                N/A     3/ 7
FRYING PAN BUOY  2250   77 75  150/ 16/ 17 1024.4F   4/ 6   2/120/ 7
BUOY 41025       2250   75 77  160/ 17/ 19 1025.0F   3/ 6   2/110/ 7
CAPE LOOKOUT NC  2300   74     150/ 15/ 16 1024.6S
BUOY 41002       2250   74 75  110/ 14/ 16 1025.8F   4/ 7   2/110/11
BUOY 41010       2220   78 81   80/ 14/ 17 1022.7F
ST AUGUSTINE FL  2300   79 82  140/ 16/ 18 1022.8R


$$



USA.gov is the U.S. government's official web portal to all federal, state and local government web resources and services.